This is the latest recevied weather packets stored in our database for station/object DK4SDR-10. If no packets are shown the sender has not sent any weather packets the latest 10 day(s).
| Time | Temp. | Humidity | Pressure | Rain* | Wind** | Luminosity | Snow |
|---|---|---|---|---|---|---|---|
| 1777881807 | 16.67° C | 53% | 1015.3 hPa | - | - | - | - |
| 1777880907 | 16.11° C | 55% | 1015.3 hPa | - | - | - | - |
| 1777880007 | 15.56° C | 57% | 1015.3 hPa | - | - | - | - |
| 1777879107 | 15° C | 52% | 1015.3 hPa | - | - | - | - |
| 1777878207 | 14.44° C | 52% | 1015.3 hPa | - | - | - | - |
| 1777877307 | 14.44° C | 49% | 1015.3 hPa | - | - | - | - |
| 1777876407 | 14.44° C | 49% | 1015.3 hPa | - | - | - | - |
| 1777875507 | 14.44° C | 48% | 1015.4 hPa | - | - | - | - |
| 1777874607 | 14.44° C | 48% | 1015.4 hPa | - | - | - | - |
| 1777873707 | 14.44° C | 48% | 1015.4 hPa | - | - | - | - |
| 1777872806 | 14.44° C | 48% | 1015.4 hPa | - | - | - | - |
| 1777871906 | 14.44° C | 47% | 1015.4 hPa | - | - | - | - |
| 1777871006 | 14.44° C | 47% | 1015.3 hPa | - | - | - | - |
| 1777870106 | 15° C | 47% | 1015.3 hPa | - | - | - | - |
| 1777869206 | 15° C | 47% | 1015.1 hPa | - | - | - | - |
| 1777868306 | 15° C | 46% | 1015.1 hPa | - | - | - | - |
| 1777867406 | 15.56° C | 47% | 1015 hPa | - | - | - | - |
| 1777866505 | 15.56° C | 46% | 1015 hPa | - | - | - | - |
| 1777865605 | 16.11° C | 46% | 1015.2 hPa | - | - | - | - |
| 1777864705 | 16.11° C | 45% | 1015 hPa | - | - | - | - |
| 1777863805 | 16.11° C | 45% | 1015.1 hPa | - | - | - | - |
| 1777862905 | 16.67° C | 45% | 1015.1 hPa | - | - | - | - |
| 1777862005 | 16.67° C | 45% | 1015.2 hPa | - | - | - | - |
| 1777861105 | 17.22° C | 44% | 1015 hPa | - | - | - | - |
| 1777860205 | 17.22° C | 44% | 1015.1 hPa | - | - | - | - |
* Rain since midnight (hover to see other rain measurements)
** Current wind speed in m/s (hover to see current wind gust speed)